Florence Regional Airport
KFLO : now visible

Airfield :











YOU CAN JOIN US ON...

 
LOGIN :

Register | Disclaimer

   EN    FR    IT 

 









Legend :    VFR   Marginal VFR   IFR   Intensive IFR   Very Intensive IFR
Visi :
Ceiling :
>= 8 km
>= 3000ft
5 to 8 km
1000 to 3000 ft
1500m to 5 km
500 to 1000 ft
800 to 1500m
200 to 500 ft
< 800m
< 200 ft
Symbols :   Thunderstorms  Fog  Heavy snow  Heavy precipitations  Wind > 20 kt






- Airport Elevation : 146 ft
- IATA code : FLO


KFLO - Florence Regional

CURRENT METAR :
  • 261053Z 32003KT 10SM CLR 15/12 A3008 RMK AO2 SLP184 T01500117

EXPIRED METARs :
  • 260953Z AUTO 33003KT 10SM CLR 16/12 A3006 RMK AO2 SLP177 T01560122
  • 260853Z AUTO 00000KT 10SM CLR 14/11 A3005 RMK AO2 SLP173 T01390111 55001

TAF KFLO
Valid from the 26 at 12:00 until the 27 at 12:00 UTC


261120Z 2612/2712 33003KT P6SM SKC
FM261300 36007KT P6SM FEW060
FM262300 33002KT P6SM SKC
KZJX FIR / North America



MET'MAP, your aeronautical weather chart ! - Copyright ORBIFLY December 2007 - Disclaimer

ORBIFLY MET'MAP TEAM :

Programming & Development : Alexandra Zaïnal
Concept & original design : Baudouin d'Aumeries
Assistance for programming : Marc-Olivier Méhu
Technical & hardware support : Manuel Goepfert

Contact : metmap@orbifly.com




SOURCES & CREDITS :

   NOAA       Earth
Advisory